Location: Stony Creek
(40.9500°S, 175.8500°E)
Time: 08:34:33
(UTC+00:00)

BREEZE-M DEB (TANK) - Pass Details

Date: 15 May 2026
Orbit: 286 x 14882 km, 49.4° (Epoch: 7 June)

Event Time Altitude Azimuth Distance (km) Brightness Sun altitude
Exits shadow 18:29:16 - 273° (W) 4,560 6.9 -9.4°
Reaches altitude 10° 18:30:42 10° 271° (W) 3,930 6.5 -9.1°
Maximum altitude 18:37:46 34° 206° (SSW) 1,104 4.0 -7.8°
Drops below altitude 10° 18:40:34 10° 137° (SE) 1,535 5.4 -7.3°
Sets 18:42:03 0° 124° (SE) 2,166 6.4 -7.1°
